This is the latest recevied weather packets stored in our database for station/object N1MCJ. If no packets are shown the sender has not sent any weather packets the latest 10 day(s).
| Time | Temp. | Humidity | Pressure | Rain* | Wind** | Luminosity | Snow |
|---|---|---|---|---|---|---|---|
| 1778039171 | 16.11° C | 77% | 1001.9 hPa | 0 mm | - | 0 W/m² | - |
| 1778038268 | 16.11° C | 76% | 1002.1 hPa | 0 mm | - | 0 W/m² | - |
| 1778037365 | 16.67° C | 75% | 1002.1 hPa | 0 mm | - | 0 W/m² | - |
| 1778036463 | 16.67° C | 75% | 1002.4 hPa | 0 mm | - | 0 W/m² | - |
| 1778035559 | 16.67° C | 74% | 1002.3 hPa | 0 mm | - | 0 W/m² | - |
| 1778034655 | 16.67° C | 73% | 1002.3 hPa | 0 mm | - | 0 W/m² | - |
| 1778033753 | 16.67° C | 72% | 1002.4 hPa | 0 mm | - | 0 W/m² | - |
| 1778032850 | 17.22° C | 71% | 1001.9 hPa | 0 mm | - | 0 W/m² | - |
| 1778031948 | 17.22° C | 71% | 1001.9 hPa | 0 mm | - | 0 W/m² | - |
| 1778031044 | 17.22° C | 71% | 1001.9 hPa | 0 mm | - | 0 W/m² | - |
| 1778030141 | 17.22° C | 70% | 1001.5 hPa | 0 mm | - | 0 W/m² | - |
| 1778029238 | 17.22° C | 70% | 1001.3 hPa | 0 mm | - | 0 W/m² | - |
| 1778028335 | 17.22° C | 69% | 1001.2 hPa | 0 mm | - | 0 W/m² | - |
| 1778027429 | 17.78° C | 68% | 1001 hPa | 0 mm | - | 0 W/m² | - |
| 1778026524 | 17.78° C | 67% | 1001.1 hPa | 0 mm | - | 0 W/m² | - |
| 1778025622 | 17.78° C | 65% | 1000.8 hPa | 0 mm | - | 0 W/m² | - |
| 1778024719 | 18.33° C | 64% | 1000.4 hPa | 0 mm | - | 0 W/m² | - |
| 1778023817 | 18.33° C | 63% | 1000.5 hPa | 0 mm | - | 6 W/m² | - |
| 1778022914 | 18.89° C | 63% | 1000.2 hPa | 0 mm | - | 12 W/m² | - |
| 1778022012 | 20° C | 62% | 999.9 hPa | 0 mm | - | 26 W/m² | - |
| 1778021108 | 20.56° C | 61% | 999.9 hPa | 0 mm | - | 35 W/m² | - |
| 1778020204 | 20.56° C | 59% | 1000.2 hPa | 0 mm | - | 47 W/m² | - |
| 1778019300 | 21.11° C | 59% | 1000.3 hPa | 0 mm | - | 59 W/m² | - |
| 1778018397 | 21.11° C | 60% | 999.9 hPa | 0 mm | - | 162 W/m² | - |
| 1778017496 | 20.56° C | 60% | 1000 hPa | 0 mm | - | 78 W/m² | - |
* Rain latest hour (hover to see other rain measurements)
** Current wind speed in m/s (hover to see current wind gust speed)